STARLINK-33658, 63384

Orbit data source: Space-Track

STARLINK-33658, 63384 is a payload satellite owned by SpaceX/Seattle (US) in LEO that was launched on Wed, 26 Mar 2025 UTC via an FALCON 9 launch vehicle from the Air Force Western Test Range (AFWTR). Payload-class satellites include a variety of spacecraft equipped with specific instruments for various scientific and technological missions. These include communications satellites like Starlink; space stations such as the ISS; scientific satellites like the Hubble; Earth observation satellites from companies like Planet Labs, Umbra, and HawkEye 360; GPS; miniature CubeSats for education and research; and military/defense satellites.

Loading next visibility...
Identifier
63384, 2025-063X
Orbit
LEO
Country
Flag of USUS
Related business
Manufacturer
SpaceX/Seattle
Mission
Operational Commercial Communications
Bus & Motor
STARLINK V2MO, Unknown motor
Mass
575 kg wet, ~530 kg dry
Launch date (UTC)
2025-03-26 (1 year ago)
Launch vehicle
FALCON 9
Launch site
Air Force Western Test Range (AFWTR)
Object type
Payload
Rocket body
Debris
Shape & HBR
Box + 2 Pan, 17.7 m
Radar Cross Section
36.964 m², Large (>1 m²)

Expand to show TLE details & history
Last TLE update: 1 day ago

TLE from 1 day ago
0 STARLINK-33658
1 63384U 25063X   26170.65901214  .00025811  00000-0  77202-3 0  9992
2 63384  53.1591 295.8209 0000889  91.7458 268.3647 15.34416699 70410
Epoch: 2026-06-19T15:48Z
TLE epoch observation values (Epoch: 2026-06-19T15:48:58.648Z)
Latitude
Longitude
150.69172°
Altitude
463.572 km
Speed
7.636 km/s
True Right ascension
19h 43m 17s
True Declination
0° 00' 00"
Sunlit
Object was in full shadow at epoch
Visualization orbit readout
Latitude
Unknown
Longitude
Unknown
Altitude
Unknown
Speed
Unknown
Apparent Right ascension
Unknown
Apparent Declination
Unknown
Sunlit
N/A
Visualization observer readout
Local Sidereal Time
07:16:52
Azimuth
Unknown
Elevation
Unknown
Doppler factor
Unknown
Orbital elements
Apogee altitude
463.519 km
Perigee altitude
462.302 km
Semi-major axis
6,841.048 km
Eccentricity
0.00009
Inclination
53.1591°
RAAN
295.8209°
Arg. of periapsis
91.7458°
True anomaly
268.35452°
Mean anomaly
268.3647°
Eccentric anomaly
268.35961°
Mean motion
3.83583 °/min
Orbital period
93.85 mins
BSTAR
0.00077202
Loading maneuver chart data...
Computing Atmospheric mass density...
Loading historical data...
Loading historical data...
Loading historical data...
Loading historical data...
Loading historical data...
Loading historical data...
Loading historical data...

Documentation

Showing up to 5 results
|